| time (UTC) | temp C | wind direction | speed KPH | gust KPH | rain 1hr cm | rain 24hr cm | rain mn cm | humidity % | barometer mb |
| 20260902140155 | 27 | 195 | 0.0 | 1.6 | 0.00 | 0.00 | 0.00 | 81 | 1000.4 |
| 20260902133155 | 26 | 204 | 0.0 | 3.2 | 0.00 | 0.00 | 0.00 | 87 | 1000.2 |
| 20260902130154 | 25 | 48 | 0.0 | 0.0 | 0.00 | 0.00 | 0.00 | 89 | 1000.3 |
| 20260902123156 | 23 | 48 | 0.0 | 0.0 | 0.00 | 0.00 | 0.00 | 89 | 1000.4 |
| 20260902121654 | 23 | 172 | 0.0 | 1.6 | 0.00 | 0.00 | 0.00 | 88 | 1000.1 |
| 20260902120153 | 23 | 64 | 0.0 | 0.0 | 0.00 | 0.00 | 0.00 | 89 | 1000.0 |
| 20260902114657 | 23 | 64 | 0.0 | 0.0 | 0.00 | 0.00 | 0.00 | 88 | 999.7 |
| 20260902113156 | 23 | 64 | 0.0 | 0.0 | 0.00 | 0.00 | 0.00 | 88 | 999.4 |
| 20260902111652 | 23 | 64 | 0.0 | 0.0 | 0.00 | 0.00 | 0.00 | 88 | 999.1 |
| 20260902103156 | 23 | 64 | 0.0 | 0.0 | 0.00 | 0.00 | 0.00 | 87 | 998.8 |
| 20260902101656 | 23 | 64 | 0.0 | 0.0 | 0.00 | 0.00 | 0.00 | 87 | 998.8 |
| 20260902100157 | 23 | 64 | 0.0 | 0.0 | 0.00 | 0.00 | 0.00 | 87 | 998.6 |
| 20260902094658 | 23 | 64 | 0.0 | 0.0 | 0.00 | 0.00 | 0.00 | 86 | 998.6 |
| 20260902090158 | 24 | 64 | 0.0 | 0.0 | 0.00 | 0.00 | 0.00 | 85 | 998.2 |
| 20260902084656 | 24 | 64 | 0.0 | 0.0 | 0.00 | 0.00 | 0.00 | 86 | 998.2 |
| 20260902083156 | 24 | 64 | 0.0 | 0.0 | 0.00 | 0.00 | 0.00 | 85 | 998.2 |
| 20260902081655 | 24 | 64 | 0.0 | 0.0 | 0.00 | 0.00 | 0.00 | 85 | 998.1 |
| 20260902080158 | 25 | 64 | 0.0 | 0.0 | 0.00 | 0.00 | 0.00 | 85 | 998.1 |
| 20260902074658 | 25 | 64 | 0.0 | 0.0 | 0.00 | 0.00 | 0.00 | 86 | 998.2 |
| 20260902073155 | 25 | 64 | 0.0 | 0.0 | 0.00 | 0.00 | 0.00 | 85 | 998.2 |
| 20260902071656 | 25 | 64 | 0.0 | 0.0 | 0.00 | 0.00 | 0.00 | 85 | 998.0 |
| 20260902070155 | 25 | 64 | 0.0 | 0.0 | 0.00 | 0.00 | 0.00 | 85 | 998.2 |
| 20260902060155 | 26 | 64 | 0.0 | 0.0 | 0.00 | 0.00 | 0.00 | 84 | 998.1 |
| 20260902054656 | 26 | 64 | 0.0 | 0.0 | 0.00 | 0.00 | 0.00 | 83 | 998.2 |
| 20260902053156 | 26 | 64 | 0.0 | 0.0 | 0.00 | 0.00 | 0.00 | 82 | 998.2 |
| 20260902051656 | 26 | 64 | 0.0 | 0.0 | 0.00 | 0.00 | 0.00 | 81 | 998.3 |
| 20260902050156 | 26 | 64 | 0.0 | 0.0 | 0.00 | 0.00 | 0.00 | 80 | 998.3 |
| 20260902040158 | 27 | 64 | 0.0 | 0.0 | 0.00 | 0.00 | 0.00 | 75 | 998.6 |
| 20260902034655 | 27 | 64 | 0.0 | 0.0 | 0.00 | 0.00 | 0.00 | 74 | 998.6 |
| 20260902033158 | 27 | 64 | 0.0 | 0.0 | 0.00 | 0.00 | 0.00 | 73 | 998.4 |
| 20260902031654 | 28 | 64 | 0.0 | 0.0 | 0.00 | 0.00 | 0.00 | 71 | 998.6 |
| 20260902030157 | 28 | 64 | 0.0 | 0.0 | 0.00 | 0.00 | 0.00 | 70 | 998.6 |
| 20260902021655 | 29 | 64 | 0.0 | 0.0 | 0.00 | 0.00 | 0.00 | 66 | 998.2 |
| 20260902020154 | 29 | 64 | 0.0 | 0.0 | 0.00 | 0.00 | 0.00 | 66 | 998.1 |
| 20260902014655 | 30 | 64 | 0.0 | 0.0 | 0.00 | 0.00 | 0.00 | 65 | 998.1 |
| 20260902010154 | 31 | 64 | 0.0 | 0.0 | 0.00 | 0.00 | 0.00 | 64 | 997.8 |
| 20260902004655 | 31 | 64 | 0.0 | 0.0 | 0.00 | 0.00 | 0.00 | 61 | 997.8 |
| 20260902003155 | 32 | 64 | 0.0 | 0.0 | 0.00 | 0.00 | 0.00 | 59 | 997.6 |
| 20260902000154 | 34 | 64 | 0.0 | 0.0 | 0.00 | 0.00 | 0.00 | 54 | 997.7 |
| 20260901233155 | 36 | 64 | 0.0 | 1.6 | 0.00 | 0.00 | 0.00 | 49 | 997.7 |
| 20260901231657 | 36 | 64 | 0.0 | 1.6 | 0.00 | 0.00 | 0.00 | 49 | 997.7 |
| 20260901223157 | 37 | 59 | 0.0 | 1.6 | 0.00 | 0.00 | 0.00 | 48 | 997.6 |
| 20260901221655 | 37 | 53 | 0.0 | 4.8 | 0.00 | 0.00 | 0.00 | 48 | 997.7 |
| 20260901220154 | 37 | 78 | 0.0 | 3.2 | 0.00 | 0.00 | 0.00 | 46 | 997.7 |
| 20260901214655 | 37 | 139 | 0.0 | 1.6 | 0.00 | 0.00 | 0.00 | 47 | 997.9 |
| 20260901213159 | 37 | 35 | 0.0 | 3.2 | 0.00 | 0.00 | 0.00 | 43 | 997.8 |
| 20260901211656 | 37 | 105 | 0.0 | 3.2 | 0.00 | 0.00 | 0.00 | 49 | 997.8 |
| 20260901210159 | 36 | 101 | 0.0 | 4.8 | 0.00 | 0.00 | 0.00 | 52 | 997.8 |
| 20260901204656 | 37 | 16 | 0.0 | 3.2 | 0.00 | 0.00 | 0.00 | 46 | 997.9 |
| 20260901203155 | 37 | 76 | 0.0 | 4.8 | 0.00 | 0.00 | 0.00 | 49 | 998.0 |
| 20260901200158 | 37 | 217 | 1.6 | 6.4 | 0.00 | 0.00 | 0.00 | 47 | 998.4 |
| 20260901184655 | 36 | 88 | 0.0 | 4.8 | 0.00 | 0.00 | 0.00 | 54 | 999.3 |
| 20260901183155 | 35 | 227 | 1.6 | 9.7 | 0.00 | 0.00 | 0.00 | 52 | 999.4 |
| 20260901181654 | 35 | 171 | 4.8 | 12.9 | 0.00 | 0.00 | 0.00 | 51 | 999.5 |
| 20260901180154 | 35 | 215 | 3.2 | 6.4 | 0.00 | 0.00 | 0.00 | 52 | 999.6 |
| 20260901174657 | 35 | 101 | 0.0 | 6.4 | 0.00 | 0.00 | 0.00 | 54 | 999.8 |
| 20260901173155 | 33 | 187 | 0.0 | 8.0 | 0.00 | 0.00 | 0.00 | 59 | 1000.1 |
| 20260901171657 | 32 | 103 | 0.0 | 12.9 | 0.00 | 0.00 | 0.00 | 62 | 1000.0 |
| 20260901164657 | 31 | 20 | 1.6 | 6.4 | 0.00 | 0.00 | 0.00 | 64 | 1000.6 |
| 20260901163155 | 31 | 343 | 1.6 | 9.7 | 0.00 | 0.00 | 0.00 | 64 | 1000.7 |
| 20260901161658 | 31 | 93 | 1.6 | 6.4 | 0.00 | 0.00 | 0.00 | 67 | 1000.8 |
| 20260901160154 | 31 | 313 | 0.0 | 6.4 | 0.00 | 0.00 | 0.00 | 65 | 1000.8 |
| 20260901153153 | 30 | 201 | 0.0 | 6.4 | 0.00 | 0.00 | 0.00 | 70 | 1001.1 |
| 20260901151653 | 30 | 307 | 0.0 | 4.8 | 0.00 | 0.00 | 0.00 | 71 | 1000.9 |
| 20260901150154 | 28 | 152 | 0.0 | 4.8 | 0.00 | 0.00 | 0.00 | 74 | 1001.2 |
| 20260901143153 | 27 | 226 | 0.0 | 3.2 | 0.00 | 0.00 | 0.00 | 77 | 1001.0 |
| 20260901141700 | 27 | 226 | 0.0 | 1.6 | 0.00 | 0.00 | 0.00 | 78 | 1001.1 |